Regional Weather Roundup
Issued by NWS

Home | Current Version | Previous Version | Graphics & Text | Print | Product List | Glossary On
Versions: 1 2 3 4 5 6 7 8 9 10 11 12 13 14 15 16 17 18 19 20 21 22 23 24 25 26 27 28 29 30 31 32 33 34 35 36 37 38 39 40 41 42 43 44 45 46 47 48 49 50
000
ASUS43 KLMK 251310
RWRKY
KENTUCKY REGIONAL WEATHER ROUNDUP
NATIONAL WEATHER SERVICE LOUISVILLE KY
900 AM EDT FRI MAY 25 2018

NOTE "FAIR" INDICATES FEW OR NO CLOUDS BELOW 12,000 FEET
WITH NO SIGNIFICANT WEATHER AND/OR OBSTRUCTIONS TO VISIBILITY.

KYZ001>023-026-027-061>063-070>075-251400-
WESTERN AND SOUTH CENTRAL KENTUCKY

CITY           SKY/WX    TMP DP  RH WIND       PRES   REMARKS
PADUCAH        FAIR      76  66  71 CALM      29.98S
HENDERSON      NOT AVBL
OWENSBORO      FAIR      74  62  66 SE5       30.01S
HOPKINSVILLE   FAIR      73  67  80 CALM      30.00S
BOWLING GREEN  FAIR      73  68  84 E3        30.02F
GLASGOW        FAIR      73  65  74 S3        30.03S
$$

KYZ024-025-028>034-038-045-046-053-251400-
NORTH CENTRAL KENTUCKY

CITY           SKY/WX    TMP DP  RH WIND       PRES   REMARKS
LOUISVILLE/SDF FAIR      71  60  68 S3        30.01F
LOUISVILLE/LOU FAIR      72  62  71 S3        30.02F
FORT KNOX      FAIR      70  60  70 E3        30.03S
$$

KYZ035>037-039>044-047>052-055>060-089>105-251400-
NORTHEAST KENTUCKY

CITY           SKY/WX    TMP DP  RH WIND       PRES   REMARKS
LEXINGTON      FAIR      73  63  70 CALM      30.04F
COVINGTON      FAIR      73  58  59 CALM      30.03F
FRANKFORT      FAIR      71  60  68 E3        30.03S
$$

KYZ054-064>069-076>088-106>120-251400-
SOUTHEAST KENTUCKY

CITY           SKY/WX    TMP DP  RH WIND       PRES   REMARKS
JACKSON        FAIR      72  63  73 CALM      30.07S
LONDON         PTSUNNY   73  67  81 S3        30.07S
SOMERSET       FAIR      72  66  83 MISG      30.07S
MIDDLESBORO    FAIR      74  68  80 E3        30.09F
MONTICELLO     FAIR      76  69  79 NE8       30.07S
$$





USA.gov is the U.S. government's official web portal to all federal, state and local government web resources and services.